Location: Dieppe
(49.9230°N, 1.0775°E)
Time: 20:22:28
(UTC+02:00)

ISS - Pass Details

Date: 22 May 2018
Orbit: 402 x 406 km, 51.6° (Epoch: 22 June)

Event Time Altitude Azimuth Distance (km) Brightness Sun altitude
Rises 04:35:38 0° 287° (WNW) 2,321 -0.2 -11.0°
Reaches altitude 10° 04:37:51 10° 276° (W) 1,458 -1.3 -10.8°
Maximum altitude 04:40:44 29° 214° (SSW) 766 -3.0 -10.5°
Drops below altitude 10° 04:43:37 10° 151° (SSE) 1,451 -1.2 -10.2°
Sets 04:45:50 0° 140° (SE) 2,307 -0.1 -9.9°
